THORAD AGENA D DEB, 4979

Orbit data source: Space-Track

THORAD AGENA D DEB, 4979 is space debris in SSO originally from a launch on Wed, 08 Apr 1970 UTC launched from the Air Force Western Test Range (AFWTR). Debris objects in space refer to the collection of defunct objects orbiting the Earth. Examples of debris include non-operational satellites, rocket bodies, and fragments generated from explosions, collisions, or faulty payload assembly.

Loading next visibility...
Identifier
4979, 1970-025GZ
Orbit
SSO
Country
Flag of USUS
Related business
Manufacturer
Unknown
Mission
Spacecraft
Bus & Motor
Unknown
Mass
Unknown
Launch date (UTC)
1970-04-08 (56 years ago)
Launch vehicle
Unknown
Launch site
Air Force Western Test Range (AFWTR)
Object type
Payload
Rocket body
Debris
Shape & HBR
Unknown shape, 0.1 m
Radar Cross Section
Medium (>0.1 m² and <1 m²)

Expand to show TLE details & history
Last TLE update: 4 days ago

TLE from 4 days ago
0 THORAD AGENA D DEB
1 04979U 70025GZ  26170.17181395  .00000087  00000-0  17955-3 0  9999
2 04979 100.0484  53.3288 0013300 117.3872  34.0914 13.59993018782313
Epoch: 2026-06-19T04:07Z
TLE epoch observation values (Epoch: 2026-06-19T04:07:24.725Z)
Latitude
28.00382°
Longitude
-90.54967°
Altitude
1,030.884 km
Speed
7.343 km/s
True Right ascension
15h 54m 49s
True Declination
27° 52' 00"
Sunlit
Object was in full shadow at epoch
Visualization orbit readout
Latitude
Unknown
Longitude
Unknown
Altitude
Unknown
Speed
Unknown
Apparent Right ascension
Unknown
Apparent Declination
Unknown
Sunlit
N/A
Visualization observer readout
Local Sidereal Time
08:38:46
Azimuth
Unknown
Elevation
Unknown
Doppler factor
Unknown
Orbital elements
Apogee altitude
1,042.881 km
Perigee altitude
1,023.167 km
Semi-major axis
7,411.161 km
Eccentricity
0.00133
Inclination
100.0484°
RAAN
53.3288°
Arg. of periapsis
117.3872°
True anomaly
34.17694°
Mean anomaly
34.0914°
Eccentric anomaly
34.13416°
Mean motion
3.40184 °/min
Orbital period
105.83 mins
BSTAR
0.00017955

Documentation

Showing up to 5 results
|